Regional Weather Roundup
Issued by NWS

Home | Current Version | Previous Version | Text Only | Print | Product List | Glossary Off
Versions: 1 2 3 4 5 6 7 8 9 10 11 12 13 14 15 16 17 18 19 20 21 22 23 24 25 26 27 28 29 30 31 32 33 34 35 36 37 38 39 40 41 42 43 44 45 46 47 48 49 50

000
ASUS43 KLMK 051102
RWRKY
KENTUCKY REGIONAL WEATHER ROUNDUP
NATIONAL WEATHER SERVICE LOUISVILLE KY
700 AM EDT SAT SEP 05 2015

NOTE "FAIR" INDICATES FEW OR NO CLOUDS BELOW 12,000 FEET
WITH NO SIGNIFICANT WEATHER AND/OR OBSTRUCTIONS TO VISIBILITY.

KYZ001>023-026-027-061>063-070>075-051200-
WESTERN AND SOUTH CENTRAL KENTUCKY

CITY           SKY/WX    TMP DP  RH WIND       PRES   REMARKS
PADUCAH        CLEAR     68  65  90 CALM      30.06R FOG
HENDERSON      CLEAR     70  64  83 CALM      30.08R
OWENSBORO      CLEAR     70  66  86 CALM      30.09R
HOPKINSVILLE   CLEAR     69  66  89 CALM      30.07R
BOWLING GREEN  PTCLDY    70  66  87 CALM      30.09R
GLASGOW        NOT AVBL
$$

KYZ024-025-028>034-038-045-046-053-051200-
NORTH CENTRAL KENTUCKY

CITY           SKY/WX    TMP DP  RH WIND       PRES   REMARKS
LOUISVILLE/SDF MOCLDY    73  64  73 CALM      30.10R
LOUISVILLE/LOU PTCLDY    69  64  84 NW3       30.11R
FORT KNOX      PTCLDY    68  63  84 CALM      30.10R
$$

KYZ035>037-039>044-047>052-055>060-089>105-051200-
NORTHEAST KENTUCKY

CITY           SKY/WX    TMP DP  RH WIND       PRES   REMARKS
LEXINGTON      CLEAR     67  62  84 NE3       30.14R
COVINGTON      MOCLDY    68  65  90 E3        30.14R
FRANKFORT      PTCLDY    66  62  87 CALM      30.12R
$$

KYZ054-064>069-076>088-106>120-051200-
SOUTHEAST KENTUCKY

CITY           SKY/WX    TMP DP  RH WIND       PRES   REMARKS
JACKSON        CLEAR     68  65  90 CALM      30.14R
LONDON         CLEAR     68  63  84 CALM      30.14R HAZE
SOMERSET       NOT AVBL
MIDDLESBORO    MOCLDY    64  64 100 CALM      30.15R FOG
MONTICELLO     SUNNY     63  63 100 CALM      30.15R FOG
$$



USA.gov is the U.S. government's official web portal to all federal, state and local government web resources and services.